Location: Valley View Observatory
(41.0081°N, 76.5874°W)
Time: 06:51:32
(UTC-04:00)

Daily predictions for brighter satellites

Satellite Brightness Start Highest point End
(mag) Time Altitude Azimuth Time Altitude Azimuth Time Altitude Azimuth
Cosmos 1452 Rocket 4.4 21:11:39 10° NNW 21:16:47 51° WSW 21:21:52 10° S
ATLAS 3B R/B 3.4 21:14:17 10° NNW 21:20:32 41° NE 21:26:41 10° ESE
Resurs 1-3 4.1 21:16:50 10° S 21:21:10 61° W 21:25:31 10° NNW
Cosmos 1939 Rocket 4.3 21:18:57 10° SSW 21:22:44 38° W 21:26:30 10° NNW
Lacrosse 5 2.8 21:17:54 10° WSW 21:22:52 55° NW 21:27:51 10° NE
ARGOS 3.6 21:18:22 10° SE 21:23:33 48° ENE 21:28:45 10° N
Cosmos 1953 Rocket 3.5 21:22:42 10° S 21:27:03 75° E 21:31:27 10° NNE
Cosmos 2278 Rocket 3.4 21:23:00 10° SSE 21:27:14 22° E 21:31:28 10° NE
USA 238 DEB 4.1 21:20:17 10° NNW 21:27:21 60° NE 21:34:27 10° SE
USA 238 4.1 21:20:24 10° NNW 21:27:27 60° NE 21:34:32 10° SE
Cosmos 1758 Rocket 3.8 21:27:36 10° S 21:32:02 78° W 21:36:28 10° N
Cosmos 1110 Rocket 4.3 21:27:10 10° N 21:32:15 54° ENE 21:37:11 11° SE
Cosmos 1315 Rocket 3.6 21:35:33 10° SSW 21:39:33 57° WNW 21:43:37 10° N
Cosmos 1844 Rocket 2.8 21:35:22 10° SSW 21:41:02 88° WNW 21:46:44 10° NNE
Cosmos 494 Rocket 4.0 21:37:57 10° S 21:43:09 69° ESE 21:48:24 10° NNE
Cosmos 1331 Rocket 4.2 21:38:33 10° NNW 21:43:43 61° ENE 21:48:20 13° SSE
Cosmos 921 Rocket 3.1 21:40:19 10° NNW 21:44:50 75° ENE 21:48:59 12° SSE
COSMOS 2406 3.4 21:42:49 10° NNW 21:48:34 63° ENE 21:53:24 14° SE
Cosmos 1461 3.7 21:46:02 10° S 21:50:15 37° ESE 21:54:38 10° NE
Cosmos 1844 3.7 21:44:56 10° SSW 21:50:37 85° ESE 21:56:26 10° NNE
Resurs 01 Rocket 3.4 21:47:56 10° SSW 21:51:49 30° W 21:55:44 10° NW
H-2A R/B 2.2 21:47:31 11° SSE 21:52:36 71° ENE 21:58:00 10° N
ATLAS 2AS CENTAUR R/B 3.4 21:46:07 10° SW 21:53:56 74° NW 22:02:06 10° NNE
KORONAS-FOTON 3.9 21:51:25 10° S 21:55:15 59° E 21:59:08 10° NNE
ATLAS 5 CENTAUR R/B 2.8 21:53:56 14° SSE 21:56:30 23° ESE 22:00:10 10° ENE
Cosmos 1437 3.8 21:55:52 10° NNW 21:58:52 41° W 22:01:53 10° SSW
OAO 3 Rocket 4.0 21:57:05 10° WSW 22:01:37 36° S 22:04:34 19° SE
SL-14 R/B 4.2 22:00:40 19° SE 22:02:35 29° E 22:06:02 10° NNE
Cosmos 1417 Rocket 4.5 21:57:41 10° S 22:04:01 79° E 22:10:20 10° N
NOSS 3-2 (C) 4.5 21:57:27 10° NNW 22:04:48 53° NE 22:11:26 16° ESE
Cosmos 1346 Rocket 3.7 22:04:18 10° NNW 22:08:11 47° W 22:12:04 10° S
Cosmos 220 Rocket 3.8 22:04:24 10° S 22:08:35 71° ESE 22:12:48 10° NNE
Terra 3.3 22:06:52 15° ESE 22:09:32 24° ENE 22:13:19 10° NNE
ERS-1 Rocket 3.0 22:06:44 17° SSE 22:10:40 76° ENE 22:15:43 10° N
Cosmos 1626 3.8 22:10:24 17° ESE 22:11:03 18° E 22:13:37 10° NE
BREEZE-M DEB (TANK) 3.9 22:01:33 10° WSW 22:11:11 62° NNW 22:14:21 10° NE
Cosmos 1302 Rocket 4.2 22:08:16 10° NNW 22:13:32 62° ENE 22:16:58 21° SE
Cosmos 1833 Rocket 4.1 22:08:55 10° N 22:13:38 27° NE 22:17:18 14° ESE
Cosmos 2082 Rocket 3.7 22:10:21 10° N 22:15:01 25° NE 22:18:47 13° ESE
USA 215 3.8 22:14:20 16° SSE 22:19:23 48° SW 22:25:43 10° WNW
CZ-2C R/B 4.1 22:15:59 10° NE 22:19:36 18° E 22:20:49 17° ESE
Cosmos 1745 Rocket 4.0 22:13:54 10° N 22:20:13 72° E 22:24:48 19° SSE
SL-08 R/B 4.5 22:15:42 10° N 22:21:53 88° W 22:27:01 16° S
Cosmos 1340 2.6 22:18:50 10° N 22:22:39 84° W 22:24:49 24° S
Cosmos 1908 4.0 22:18:58 10° NNW 22:22:43 48° W 22:25:48 14° SSW
DMSP B5D2-2 4.0 22:19:13 10° NNE 22:24:28 76° ESE 22:29:08 13° S
CARTOSAT-1 4.4 22:23:41 24° ESE 22:25:38 36° ENE 22:29:36 10° N
CENTAUR R/B 3.9 22:19:07 10° NNW 22:26:30 41° NE 22:33:17 14° ESE
NOSS 2-2 (E) 3.5 22:26:03 20° S 22:28:25 47° ESE 22:32:31 10° NE
Cosmos 2251 Rocket 3.5 22:23:28 10° SSW 22:28:49 88° ESE 22:34:10 10° NNE
NOSS 3-4 (A) 3.4 22:25:16 10° SSW 22:31:22 73° ESE 22:37:45 10° NE
NOSS 3-4 (C) 3.4 22:25:22 10° SSW 22:31:27 72° ESE 22:37:49 10° NE
Cosmos 1076 Rocket 4.3 22:30:20 27° ESE 22:31:30 32° E 22:35:18 10° NNE
Meteor 2-10 4.4 22:29:48 10° NNW 22:35:15 70° W 22:39:22 19° S
Helios 1B rocket 2.6 22:33:26 10° NNE 22:37:27 51° E 22:38:53 34° SSE
Helios 1A 2.9 22:37:59 31° SSE 22:39:57 88° ENE 22:44:12 10° NNW
Meteor 1-29 3.5 22:38:21 10° NNE 22:41:31 37° E 22:41:37 37° ESE
Cosmos 1455 4.1 22:40:29 10° NNE 22:42:59 17° ENE 22:43:26 16° E
Cosmos 1726 3.4 22:40:03 10° NNW 22:43:32 37° W 22:45:50 18° SSW
Cosmos 1300 2.6 22:41:09 10° N 22:45:00 89° E 22:46:20 39° S
S3M 4.5 22:41:19 10° SSW 22:47:36 62° W 22:53:56 10° N
APEX 3.8 22:48:08 10° NW 22:51:19 44° WSW 22:52:31 32° SSW
Cosmos 1709 Rocket 4.0 22:47:11 10° N 22:53:22 65° E 22:56:22 31° SSE
Cosmos 1842 Rocket 4.4 22:50:19 10° NNW 22:54:29 46° W 22:56:56 22° SSW
CZ-2C R/B 3.5 22:54:27 31° SE 22:57:12 63° ENE 23:02:52 10° N
SPOT 5 3.4 22:54:57 26° S 22:57:48 61° W 23:03:04 10° NNW
NOSS 2-2 (D) 3.2 22:57:20 25° SSW 22:59:30 85° ESE 23:03:47 10° NE
YAOGAN 11 4.5 23:00:38 39° SE 23:02:00 54° ENE 23:06:26 10° N
RESURS DK-1 2.4 23:03:43 51° SE 23:04:11 54° ESE 23:08:14 10° NE
Cosmos 2278 Rocket 3.0 23:05:22 10° SW 23:10:53 52° WNW 23:16:26 10° NNE
ATLAS 3B R/B 3.4 23:05:05 10° NW 23:11:11 41° WSW 23:14:25 25° SSW
Meteor 1-11 4.3 23:12:37 38° SSE 23:14:42 61° E 23:20:25 10° NNE
Cosmos 1328 3.8 23:14:45 51° SSW 23:15:40 77° W 23:19:37 10° N
Cosmos 2221 3.2 23:15:38 10° NNW 23:19:46 46° W 23:21:10 33° SW
Spot 1 4.4 23:21:12 44° SSW 23:22:24 64° WSW 23:27:01 10° NNW
SL-27 R/B 2.5 23:20:57 10° NNW 23:24:32 72° ENE 23:24:32 72° ENE
NOSS 2-2 (C) 4.1 23:22:44 15° SW 23:25:43 51° NW 23:29:57 10° NNE
Cosmos 1441 Rocket 4.2 23:22:40 10° N 23:25:59 33° ENE 23:25:59 33° ENE
Okean 3 Rocket 3.8 23:27:16 42° SW 23:28:35 64° W 23:32:57 10° N
H-2A R/B 4.5 23:29:44 10° WSW 23:32:33 14° W 23:35:24 10° WNW
Cosmos 2315 Rocket 4.3 23:29:38 26° SSW 23:33:21 65° W 23:39:42 10° N
Aureole 3 Rocket 4.2 23:31:28 25° SSW 23:35:57 71° W 23:41:25 10° N
Cosmos 1328 Rocket 4.0 23:32:10 10° N 23:36:23 47° E 23:36:39 46° E
Cosmos 2369 Rocket 3.7 23:39:36 21° E 23:39:36 21° E 23:43:17 10° NE
Cosmos 405 Rocket 3.7 23:36:15 10° N 23:39:21 35° ENE 23:39:21 35° ENE
ATLAS 5 CENTAUR R/B 3.0 23:36:34 10° WSW 23:40:49 40° NW 23:45:29 10° NNE
Cosmos 1743 Rocket 4.3 23:42:24 38° E 23:42:24 38° E 23:46:18 10° NNE
Cosmos 2228 Rocket 3.9 23:40:44 10° N 23:44:53 37° ENE 23:45:04 37° E
Cosmos 1626 3.9 23:45:00 22° WSW 23:46:09 26° WNW 23:49:20 10° NNW
Terra 2.9 23:45:46 30° SW 23:47:03 36° W 23:51:27 10° NNW
Cosmos 2184 Rocket 4.0 23:42:23 10° N 23:48:43 71° E 23:50:33 47° SSE
SL-19 R/B 4.5 23:46:03 10° NNE 23:51:13 45° E 23:51:36 44° ESE
